QPF
0.00 0.00 0.00 0.00 0.00 0.00 0.00 0.00 0.00 0.00 0.00 0.00 0.00 0.01 0.01 0.01 0.01 0.01 0.03 0.06 0.10 0.11 0.09 0.05 0.04 0.03 0.02 0.02 0.01 0.01 0.01 0.01 0.01 0.02 0.02 0.03 0.03 0.03 0.03 0.03 0.03 0.02 0.03 0.02
0.00 0.00 0.00 0.00 0.00 0.00 0.00 0.00 0.00 0.00 0.00 0.00 0.00 0.01 0.01 0.01 0.01 0.02 0.04 0.04 0.05 0.05 0.07 0.07 0.08 0.05 0.03 0.02 0.02 0.02 0.02 0.02 0.03 0.04 0.06 0.07 0.08 0.07 0.06 0.06 0.04 0.02 0.01 0.01
0.00 0.00 0.00 0.00 0.00 0.00 0.00 0.00 0.00 0.00 0.00 0.00 0.00 0.00 0.00 0.01 0.03 0.07 0.05 0.02 0.02 0.02 0.02 0.03 0.04 0.04 0.03 0.03 0.03 0.03 0.04 0.06 0.08 0.08 0.09 0.12 0.14 0.11 0.10 0.07 0.03 0.01 0.01 0.01
0.00 0.00 0.00 0.00 0.00 0.00 0.00 0.00 0.00 0.00 0.00 0.00 0.00 0.00 0.00 0.01 0.01 0.02 0.01 0.00 0.01 0.02 0.03 0.03 0.04 0.07 0.05 0.04 0.04 0.04 0.06 0.08 0.10 0.11 0.14 0.16 0.13 0.10 0.07 0.05 0.03 0.02 0.02 0.02
0.00 0.00 0.00 0.00 0.00 0.00 0.00 0.00 0.00 0.00 0.00 0.00 0.00 0.00 0.01 0.04 0.10 0.05 0.02 0.01 0.01 0.02 0.04 0.06 0.05 0.05 0.04 0.04 0.05 0.05 0.06 0.08 0.10 0.12 0.15 0.13 0.10 0.06 0.04 0.05 0.05 0.04 0.04 0.04
0.00 0.00 0.00 0.00 0.00 0.00 0.00 0.00 0.00 0.00 0.00 0.00 0.00 0.00 0.01 0.02 0.06 0.07 0.05 0.03 0.02 0.01 0.02 0.05 0.06 0.06 0.05 0.05 0.06 0.06 0.06 0.08 0.10 0.11 0.11 0.08 0.06 0.05 0.05 0.05 0.05 0.06 0.06 0.06
0.00 0.00 0.00 0.00 0.00 0.00 0.00 0.01 0.00 0.01 0.01 0.00 0.00 0.01 0.01 0.02 0.02 0.03 0.03 0.03 0.03 0.02 0.02 0.03 0.03 0.05 0.06 0.05 0.05 0.06 0.07 0.09 0.09 0.10 0.09 0.07 0.06 0.05 0.05 0.05 0.07 0.07 0.07 0.08
0.01 0.01 0.01 0.00 0.00 0.01 0.02 0.01 0.01 0.02 0.02 0.01 0.01 0.01 0.01 0.02 0.03 0.03 0.04 0.04 0.04 0.04 0.03 0.04 0.05 0.05 0.05 0.05 0.05 0.06 0.08 0.08 0.08 0.08 0.08 0.08 0.07 0.05 0.06 0.06 0.07 0.07 0.09 0.12
0.01 0.01 0.01 0.01 0.01 0.01 0.02 0.03 0.03 0.03 0.03 0.03 0.03 0.03 0.03 0.04 0.04 0.04 0.04 0.03 0.03 0.03 0.04 0.05 0.06 0.07 0.07 0.08 0.10 0.13 0.14 0.14 0.11 0.08 0.06 0.06 0.06 0.05 0.05 0.07 0.07 0.07 0.06 0.05
0.02 0.02 0.03 0.03 0.03 0.04 0.03 0.03 0.03 0.03 0.04 0.04 0.04 0.04 0.04 0.06 0.07 0.07 0.06 0.05 0.05 0.05 0.05 0.06 0.07 0.07 0.08 0.08 0.10 0.14 0.15 0.17 0.18 0.15 0.12 0.12 0.11 0.08 0.06 0.05 0.05 0.04 0.03 0.02
0.04 0.06 0.06 0.05 0.06 0.07 0.07 0.05 0.03 0.02 0.03 0.04 0.04 0.05 0.05 0.06 0.08 0.09 0.10 0.10 0.09 0.08 0.09 0.09 0.09 0.08 0.08 0.09 0.10 0.14 0.16 0.18 0.17 0.15 0.13 0.10 0.08 0.06 0.05 0.04 0.03 0.02 0.02 0.01
0.08 0.10 0.11 0.11 0.11 0.11 0.12 0.09 0.07 0.05 0.04 0.05 0.05 0.04 0.06 0.06 0.07 0.08 0.09 0.08 0.07 0.06 0.06 0.06 0.06 0.08 0.12 0.15 0.15 0.14 0.14 0.13 0.12 0.09 0.09 0.07 0.06 0.04 0.03 0.03 0.02 0.02 0.02 0.02
0.13 0.16 0.16 0.16 0.16 0.17 0.22 0.20 0.14 0.10 0.07 0.06 0.07 0.06 0.07 0.06 0.06 0.06 0.06 0.06 0.06 0.07 0.07 0.06 0.05 0.05 0.06 0.08 0.08 0.08 0.08 0.08 0.08 0.07 0.06 0.06 0.04 0.03 0.03 0.02 0.02 0.02 0.01 0.02
0.16 0.20 0.21 0.21 0.20 0.19 0.21 0.18 0.13 0.12 0.12 0.10 0.07 0.06 0.07 0.07 0.06 0.06 0.07 0.07 0.08 0.08 0.07 0.06 0.05 0.05 0.06 0.06 0.07 0.09 0.09 0.08 0.06 0.05 0.04 0.04 0.04 0.04 0.03 0.03 0.03 0.02 0.02 0.02
0.13 0.20 0.23 0.24 0.19 0.18 0.17 0.14 0.10 0.09 0.11 0.11 0.09 0.07 0.06 0.07 0.10 0.11 0.08 0.07 0.08 0.09 0.10 0.09 0.07 0.05 0.05 0.06 0.07 0.09 0.10 0.08 0.06 0.04 0.04 0.04 0.06 0.05 0.04 0.04 0.04 0.04 0.04 0.04
0.14 0.20 0.21 0.25 0.25 0.22 0.21 0.18 0.14 0.10 0.08 0.08 0.09 0.07 0.05 0.07 0.10 0.13 0.11 0.08 0.08 0.08 0.08 0.08 0.07 0.07 0.07 0.07 0.08 0.08 0.08 0.08 0.06 0.05 0.04 0.04 0.05 0.06 0.05 0.05 0.05 0.05 0.04 0.04
0.22 0.20 0.26 0.29 0.29 0.29 0.27 0.21 0.17 0.12 0.11 0.11 0.10 0.09 0.09 0.11 0.11 0.11 0.12 0.12 0.10 0.10 0.11 0.10 0.09 0.07 0.06 0.06 0.07 0.08 0.09 0.08 0.08 0.07 0.06 0.05 0.05 0.06 0.06 0.06 0.05 0.05 0.06 0.05
0.21 0.17 0.21 0.26 0.27 0.26 0.25 0.25 0.21 0.14 0.11 0.12 0.10 0.09 0.09 0.10 0.10 0.11 0.14 0.16 0.15 0.13 0.12 0.12 0.11 0.09 0.07 0.06 0.06 0.07 0.07 0.06 0.07 0.07 0.06 0.06 0.06 0.06 0.06 0.05 0.05 0.05 0.05 0.05
0.13 0.10 0.13 0.16 0.19 0.20 0.16 0.17 0.19 0.17 0.11 0.09 0.10 0.09 0.08 0.08 0.07 0.07 0.09 0.11 0.10 0.10 0.10 0.09 0.09 0.09 0.09 0.08 0.07 0.07 0.07 0.07 0.06 0.06 0.05 0.05 0.06 0.06 0.06 0.05 0.05 0.04 0.03 0.03
0.08 0.08 0.08 0.09 0.09 0.13 0.14 0.13 0.11 0.09 0.09 0.08 0.11 0.11 0.08 0.07 0.06 0.06 0.08 0.10 0.11 0.11 0.09 0.07 0.06 0.06 0.06 0.08 0.08 0.06 0.06 0.06 0.06 0.05 0.05 0.05 0.05 0.05 0.05 0.04 0.04 0.03 0.02 0.02
0.09 0.07 0.07 0.08 0.06 0.06 0.08 0.09 0.11 0.09 0.05 0.05 0.06 0.07 0.08 0.08 0.07 0.06 0.08 0.11 0.13 0.10 0.08 0.07 0.05 0.05 0.05 0.05 0.05 0.04 0.04 0.04 0.05 0.04 0.04 0.04 0.04 0.05 0.05 0.05 0.05 0.05 0.04 0.03
0.10 0.08 0.08 0.07 0.06 0.04 0.04 0.04 0.06 0.08 0.07 0.06 0.05 0.04 0.04 0.06 0.06 0.05 0.05 0.06 0.06 0.07 0.06 0.05 0.04 0.05 0.04 0.04 0.04 0.04 0.03 0.04 0.04 0.04 0.04 0.04 0.06 0.07 0.08 0.09 0.09 0.08 0.07 0.06
0.06 0.06 0.05 0.04 0.04 0.03 0.03 0.03 0.03 0.03 0.03 0.04 0.03 0.03 0.03 0.04 0.05 0.05 0.04 0.04 0.04 0.04 0.04 0.04 0.05 0.05 0.04 0.04 0.03 0.03 0.03 0.03 0.03 0.03 0.04 0.05 0.06 0.06 0.06 0.06 0.06 0.05 0.05 0.05
0.04 0.04 0.03 0.03 0.02 0.02 0.02 0.03 0.03 0.02 0.02 0.02 0.02 0.02 0.04 0.04 0.04 0.04 0.03 0.03 0.04 0.04 0.04 0.05 0.04 0.03 0.03 0.02 0.02 0.02 0.02 0.02 0.02 0.02 0.04 0.05 0.05 0.05 0.05 0.04 0.04 0.04 0.04 0.03
0.04 0.03 0.02 0.02 0.02 0.02 0.01 0.02 0.02 0.03 0.03 0.04 0.04 0.03 0.03 0.03 0.04 0.04 0.03 0.03 0.03 0.03 0.03 0.03 0.03 0.02 0.01 0.01 0.01 0.01 0.01 0.01 0.01 0.01 0.02 0.03 0.03 0.03 0.03 0.02 0.02 0.02 0.02 0.02
0.03 0.02 0.02 0.02 0.02 0.01 0.01 0.02 0.03 0.04 0.05 0.05 0.05 0.05 0.04 0.04 0.05 0.05 0.04 0.04 0.04 0.03 0.02 0.02 0.02 0.01 0.01 0.01 0.01 0.01 0.01 0.01 0.01 0.01 0.02 0.02 0.01 0.01 0.01 0.01 0.01 0.01 0.01 0.00
0.02 0.02 0.01 0.01 0.01 0.02 0.02 0.03 0.04 0.05 0.05 0.05 0.04 0.03 0.03 0.04 0.05 0.05 0.05 0.04 0.04 0.03 0.03 0.02 0.02 0.01 0.01 0.01 0.01 0.02 0.02 0.01 0.02 0.02 0.02 0.02 0.02 0.02 0.02 0.01 0.01 0.01 0.01 0.01
MSLP
1009.93 1009.93 1010.06 1010.27 1010.53 1010.75 1010.87 1010.84 1010.62 1010.22 1009.68 1009.06 1008.46 1007.98 1007.67 1007.58 1007.72 1008.06 1008.55 1009.11 1009.66 1010.15 1010.55 1010.83 1011.02 1011.16 1011.28 1011.43 1011.63 1011.89 1012.19 1012.51 1012.82 1013.09 1013.30 1013.45 1013.55 1013.63 1013.69 1013.78 1013.89 1014.03 1014.20 1014.37
1010.37 1010.27 1010.21 1010.18 1010.15 1010.08 1009.93 1009.68 1009.33 1008.90 1008.41 1007.93 1007.52 1007.22 1007.09 1007.12 1007.33 1007.66 1008.08 1008.53 1008.96 1009.33 1009.64 1009.87 1010.06 1010.24 1010.43 1010.66 1010.94 1011.26 1011.61 1011.96 1012.28 1012.56 1012.78 1012.95 1013.08 1013.19 1013.31 1013.44 1013.59 1013.76 1013.95 1014.12
1010.94 1010.73 1010.51 1010.26 1009.97 1009.63 1009.25 1008.81 1008.35 1007.89 1007.45 1007.08 1006.82 1006.68 1006.68 1006.81 1007.04 1007.34 1007.68 1008.00 1008.30 1008.54 1008.74 1008.92 1009.09 1009.28 1009.52 1009.81 1010.15 1010.53 1010.92 1011.30 1011.64 1011.94 1012.19 1012.39 1012.56 1012.72 1012.88 1013.06 1013.26 1013.47 1013.67 1013.84
1011.56 1011.25 1010.86 1010.41 1009.90 1009.34 1008.75 1008.16 1007.61 1007.12 1006.72 1006.45 1006.32 1006.31 1006.42 1006.62 1006.87 1007.14 1007.40 1007.61 1007.78 1007.91 1008.01 1008.12 1008.26 1008.44 1008.70 1009.02 1009.40 1009.81 1010.22 1010.62 1010.98 1011.30 1011.56 1011.80 1012.01 1012.22 1012.44 1012.67 1012.91 1013.14 1013.35 1013.52
1012.14 1011.71 1011.16 1010.53 1009.81 1009.06 1008.30 1007.58 1006.96 1006.46 1006.11 1005.93 1005.91 1006.02 1006.24 1006.51 1006.80 1007.06 1007.27 1007.41 1007.49 1007.53 1007.56 1007.60 1007.70 1007.87 1008.12 1008.44 1008.82 1009.23 1009.64 1010.04 1010.40 1010.72 1011.00 1011.25 1011.50 1011.75 1012.01 1012.28 1012.55 1012.80 1013.02 1013.19
1012.59 1012.01 1011.30 1010.49 1009.60 1008.67 1007.78 1006.97 1006.29 1005.79 1005.50 1005.40 1005.49 1005.73 1006.05 1006.42 1006.77 1007.06 1007.27 1007.39 1007.44 1007.44 1007.43 1007.44 1007.51 1007.65 1007.87 1008.17 1008.53 1008.91 1009.29 1009.65 1009.99 1010.29 1010.57 1010.83 1011.09 1011.36 1011.65 1011.94 1012.23 1012.50 1012.72 1012.88
1012.85 1012.11 1011.24 1010.25 1009.20 1008.14 1007.14 1006.26 1005.56 1005.08 1004.84 1004.83 1005.03 1005.39 1005.83 1006.31 1006.75 1007.12 1007.38 1007.54 1007.61 1007.63 1007.62 1007.62 1007.68 1007.80 1008.00 1008.25 1008.56 1008.89 1009.22 1009.53 1009.82 1010.08 1010.33 1010.58 1010.84 1011.12 1011.41 1011.71 1012.00 1012.27 1012.49 1012.64
1012.90 1012.01 1010.98 1009.86 1008.68 1007.53 1006.45 1005.54 1004.83 1004.38 1004.19 1004.27 1004.57 1005.03 1005.60 1006.18 1006.74 1007.21 1007.57 1007.81 1007.95 1008.01 1008.05 1008.08 1008.14 1008.26 1008.42 1008.64 1008.89 1009.15 1009.42 1009.66 1009.89 1010.11 1010.32 1010.54 1010.78 1011.04 1011.33 1011.62 1011.90 1012.16 1012.37 1012.52
1012.80 1011.77 1010.63 1009.41 1008.16 1006.95 1005.85 1004.92 1004.24 1003.82 1003.69 1003.83 1004.21 1004.76 1005.41 1006.09 1006.74 1007.31 1007.78 1008.12 1008.35 1008.50 1008.60 1008.68 1008.77 1008.89 1009.04 1009.22 1009.42 1009.62 1009.81 1009.99 1010.16 1010.33 1010.50 1010.69 1010.90 1011.14 1011.40 1011.68 1011.95 1012.19 1012.38 1012.53
1012.61 1011.51 1010.31 1009.05 1007.78 1006.58 1005.50 1004.61 1003.96 1003.58 1003.49 1003.67 1004.08 1004.67 1005.37 1006.10 1006.81 1007.45 1007.99 1008.42 1008.74 1008.98 1009.15 1009.29 1009.42 1009.55 1009.69 1009.85 1010.00 1010.15 1010.29 1010.42 1010.54 1010.66 1010.80 1010.96 1011.15 1011.37 1011.61 1011.86 1012.11 1012.33 1012.52 1012.65
1012.44 1011.32 1010.14 1008.91 1007.70 1006.57 1005.56 1004.74 1004.15 1003.81 1003.74 1003.92 1004.33 1004.89 1005.56 1006.28 1006.99 1007.64 1008.21 1008.68 1009.06 1009.36 1009.59 1009.78 1009.95 1010.10 1010.25 1010.39 1010.51 1010.63 1010.73 1010.83 1010.92 1011.01 1011.13 1011.27 1011.45 1011.65 1011.88 1012.11 1012.34 1012.55 1012.72 1012.85
1012.32 1011.27 1010.18 1009.07 1007.99 1006.98 1006.10 1005.39 1004.87 1004.58 1004.51 1004.66 1004.99 1005.48 1006.05 1006.68 1007.30 1007.90 1008.43 1008.89 1009.28 1009.60 1009.86 1010.09 1010.28 1010.45 1010.60 1010.74 1010.86 1010.96 1011.05 1011.13 1011.21 1011.29 1011.40 1011.54 1011.71 1011.91 1012.13 1012.35 1012.57 1012.76 1012.92 1013.04
1012.26 1011.35 1010.41 1009.48 1008.59 1007.77 1007.06 1006.48 1006.05 1005.80 1005.72 1005.80 1006.03 1006.38 1006.81 1007.28 1007.76 1008.24 1008.67 1009.07 1009.41 1009.72 1009.98 1010.21 1010.42 1010.61 1010.77 1010.91 1011.03 1011.12 1011.21 1011.28 1011.36 1011.45 1011.56 1011.70 1011.87 1012.07 1012.28 1012.50 1012.71 1012.89 1013.04 1013.14
1012.23 1011.49 1010.76 1010.05 1009.39 1008.79 1008.26 1007.83 1007.51 1007.30 1007.20 1007.21 1007.32 1007.50 1007.74 1008.03 1008.33 1008.64 1008.95 1009.24 1009.51 1009.77 1010.01 1010.23 1010.44 1010.63 1010.79 1010.93 1011.05 1011.15 1011.23 1011.30 1011.38 1011.47 1011.58 1011.72 1011.89 1012.09 1012.29 1012.50 1012.70 1012.87 1013.01 1013.11
1012.18 1011.63 1011.11 1010.64 1010.21 1009.84 1009.51 1009.24 1009.02 1008.85 1008.74 1008.67 1008.66 1008.68 1008.75 1008.84 1008.96 1009.11 1009.27 1009.44 1009.63 1009.83 1010.04 1010.24 1010.44 1010.62 1010.79 1010.92 1011.03 1011.12 1011.19 1011.25 1011.32 1011.40 1011.50 1011.62 1011.78 1011.96 1012.15 1012.34 1012.52 1012.68 1012.81 1012.90
1012.06 1011.69 1011.38 1011.12 1010.92 1010.75 1010.61 1010.48 1010.36 1010.24 1010.12 1010.00 1009.89 1009.78 1009.70 1009.63 1009.60 1009.60 1009.64 1009.72 1009.84 1009.99 1010.16 1010.35 1010.53 1010.71 1010.86 1010.98 1011.07 1011.14 1011.18 1011.21 1011.25 1011.29 1011.36 1011.45 1011.57 1011.71 1011.87 1012.04 1012.20 1012.34 1012.46 1012.56
1011.88 1011.66 1011.52 1011.44 1011.42 1011.42 1011.43 1011.43 1011.39 1011.32 1011.21 1011.07 1010.89 1010.70 1010.51 1010.34 1010.20 1010.11 1010.07 1010.09 1010.17 1010.29 1010.45 1010.62 1010.79 1010.96 1011.09 1011.19 1011.25 1011.28 1011.28 1011.26 1011.24 1011.22 1011.23 1011.27 1011.33 1011.43 1011.54 1011.67 1011.79 1011.92 1012.04 1012.14
1011.71 1011.60 1011.59 1011.64 1011.74 1011.86 1011.97 1012.06 1012.09 1012.07 1011.97 1011.82 1011.62 1011.40 1011.16 1010.94 1010.76 1010.63 1010.57 1010.57 1010.64 1010.76 1010.91 1011.09 1011.26 1011.41 1011.52 1011.59 1011.61 1011.58 1011.52 1011.44 1011.35 1011.26 1011.19 1011.15 1011.15 1011.18 1011.23 1011.31 1011.41 1011.51 1011.62 1011.74
1011.66 1011.62 1011.68 1011.80 1011.96 1012.15 1012.32 1012.45 1012.53 1012.53 1012.46 1012.33 1012.14 1011.92 1011.69 1011.47 1011.30 1011.18 1011.13 1011.15 1011.24 1011.38 1011.55 1011.73 1011.90 1012.04 1012.13 1012.16 1012.13 1012.05 1011.93 1011.77 1011.60 1011.44 1011.29 1011.17 1011.09 1011.05 1011.04 1011.08 1011.14 1011.22 1011.33 1011.46
1011.83 1011.83 1011.91 1012.06 1012.24 1012.44 1012.62 1012.77 1012.85 1012.87 1012.82 1012.71 1012.54 1012.35 1012.15 1011.98 1011.84 1011.77 1011.75 1011.81 1011.93 1012.09 1012.28 1012.47 1012.63 1012.76 1012.83 1012.83 1012.76 1012.63 1012.45 1012.23 1011.99 1011.76 1011.54 1011.35 1011.20 1011.10 1011.05 1011.04 1011.07 1011.14 1011.24 1011.39
1012.29 1012.31 1012.39 1012.52 1012.68 1012.86 1013.02 1013.14 1013.21 1013.23 1013.18 1013.09 1012.95 1012.79 1012.63 1012.50 1012.41 1012.38 1012.41 1012.50 1012.65 1012.83 1013.02 1013.21 1013.37 1013.47 1013.52 1013.49 1013.39 1013.23 1013.01 1012.75 1012.47 1012.19 1011.93 1011.69 1011.50 1011.36 1011.27 1011.23 1011.24 1011.30 1011.40 1011.56
1013.02 1013.04 1013.10 1013.20 1013.32 1013.45 1013.57 1013.65 1013.69 1013.69 1013.63 1013.54 1013.42 1013.29 1013.17 1013.07 1013.01 1013.01 1013.06 1013.17 1013.32 1013.50 1013.69 1013.86 1014.00 1014.09 1014.12 1014.07 1013.96 1013.78 1013.54 1013.28 1012.99 1012.69 1012.42 1012.17 1011.96 1011.80 1011.70 1011.64 1011.64 1011.70 1011.81 1011.97
1013.91 1013.92 1013.97 1014.03 1014.11 1014.18 1014.24 1014.28 1014.28 1014.24 1014.18 1014.08 1013.96 1013.84 1013.74 1013.65 1013.61 1013.62 1013.67 1013.77 1013.90 1014.05 1014.21 1014.36 1014.47 1014.54 1014.55 1014.50 1014.39 1014.22 1014.00 1013.75 1013.48 1013.21 1012.96 1012.73 1012.54 1012.39 1012.29 1012.23 1012.23 1012.29 1012.39 1012.55
1014.80 1014.80 1014.83 1014.85 1014.89 1014.91 1014.93 1014.92 1014.89 1014.83 1014.74 1014.63 1014.51 1014.40 1014.29 1014.21 1014.16 1014.15 1014.17 1014.24 1014.33 1014.45 1014.56 1014.67 1014.75 1014.80 1014.80 1014.75 1014.65 1014.51 1014.33 1014.13 1013.91 1013.69 1013.49 1013.30 1013.14 1013.03 1012.95 1012.91 1012.92 1012.98 1013.08 1013.23
1015.49 1015.49 1015.49 1015.50 1015.50 1015.49 1015.48 1015.44 1015.39 1015.31 1015.22 1015.10 1014.98 1014.86 1014.75 1014.66 1014.59 1014.55 1014.54 1014.56 1014.61 1014.67 1014.74 1014.80 1014.85 1014.88 1014.87 1014.83 1014.76 1014.66 1014.53 1014.39 1014.24 1014.09 1013.94 1013.81 1013.71 1013.63 1013.58 1013.57 1013.59 1013.65 1013.75 1013.89
1015.84 1015.83 1015.82 1015.81 1015.80 1015.78 1015.75 1015.71 1015.65 1015.58 1015.49 1015.39 1015.28 1015.17 1015.06 1014.96 1014.87 1014.80 1014.76 1014.74 1014.74 1014.75 1014.77 1014.79 1014.81 1014.82 1014.82 1014.79 1014.75 1014.69 1014.62 1014.53 1014.45 1014.36 1014.28 1014.21 1014.15 1014.12 1014.10 1014.11 1014.15 1014.21 1014.30 1014.43
1015.79 1015.77 1015.75 1015.73 1015.72 1015.70 1015.68 1015.66 1015.62 1015.57 1015.51 1015.44 1015.36 1015.27 1015.18 1015.08 1014.99 1014.91 1014.85 1014.79 1014.76 1014.73 1014.72 1014.71 1014.70 1014.70 1014.69 1014.68 1014.66 1014.64 1014.61 1014.57 1014.53 1014.50 1014.47 1014.44 1014.43 1014.42 1014.43 1014.46 1014.50 1014.57 1014.66 1014.78
Thickness
5757 5772 5781 5783 5788 5793 5784 5777 5769 5777 5785 5799 5812 5817 5822 5826 5826 5825 5822 5822 5821 5819 5818 5819 5818 5816 5815 5813 5810 5807 5801 5796 5792 5788 5784 5780 5774 5769 5766 5762 5759 5755 5751 5747
5746 5765 5772 5774 5784 5788 5788 5787 5783 5785 5786 5807 5815 5818 5819 5821 5820 5817 5817 5817 5818 5817 5815 5816 5816 5814 5811 5808 5807 5804 5799 5794 5791 5786 5780 5775 5771 5766 5762 5759 5755 5751 5746 5742
5718 5742 5753 5747 5770 5777 5778 5783 5783 5774 5785 5803 5803 5809 5812 5816 5817 5816 5816 5816 5815 5815 5815 5816 5815 5813 5809 5808 5806 5800 5796 5792 5787 5781 5774 5770 5767 5762 5759 5756 5752 5746 5742 5738
5703 5720 5713 5741 5774 5779 5775 5778 5785 5786 5791 5797 5800 5806 5812 5816 5815 5815 5817 5815 5814 5814 5815 5815 5813 5811 5809 5806 5802 5797 5792 5787 5783 5778 5772 5765 5761 5758 5755 5752 5747 5742 5737 5734
5687 5693 5710 5741 5763 5769 5763 5762 5781 5781 5786 5790 5797 5799 5798 5807 5811 5813 5814 5814 5813 5812 5811 5810 5808 5807 5804 5799 5796 5792 5788 5783 5779 5775 5768 5762 5757 5754 5750 5746 5742 5737 5733 5728
5681 5684 5688 5721 5755 5770 5763 5746 5774 5777 5777 5781 5785 5770 5777 5796 5802 5805 5807 5808 5807 5807 5805 5802 5801 5799 5795 5791 5788 5785 5783 5779 5776 5771 5765 5758 5753 5749 5745 5741 5736 5732 5726 5721
5671 5673 5690 5723 5746 5756 5727 5732 5761 5767 5770 5773 5771 5774 5781 5789 5792 5794 5797 5798 5799 5798 5795 5794 5793 5790 5785 5782 5780 5780 5777 5773 5768 5764 5759 5753 5748 5744 5739 5734 5729 5724 5719 5714
5660 5662 5677 5718 5727 5721 5722 5741 5749 5757 5762 5764 5767 5771 5774 5777 5780 5782 5783 5785 5786 5785 5783 5784 5784 5781 5775 5771 5773 5772 5769 5764 5759 5755 5752 5746 5740 5735 5731 5726 5720 5715 5710 5705
5660 5669 5693 5707 5712 5721 5728 5731 5739 5746 5753 5757 5758 5759 5762 5765 5767 5770 5771 5772 5773 5772 5770 5770 5772 5771 5766 5764 5762 5760 5756 5751 5747 5744 5740 5737 5731 5726 5721 5716 5711 5706 5701 5696
5657 5672 5684 5695 5705 5713 5720 5724 5731 5738 5743 5746 5747 5749 5749 5752 5755 5757 5757 5758 5760 5758 5756 5756 5758 5758 5756 5755 5752 5749 5746 5740 5736 5732 5728 5723 5719 5714 5709 5705 5701 5697 5692 5688
5646 5659 5671 5681 5687 5695 5705 5714 5719 5725 5731 5733 5736 5738 5739 5738 5741 5744 5745 5747 5746 5745 5744 5745 5746 5745 5745 5743 5741 5738 5735 5730 5726 5721 5716 5710 5705 5701 5698 5694 5692 5689 5684 5680
5635 5647 5651 5660 5674 5683 5689 5698 5704 5710 5714 5719 5722 5724 5726 5726 5728 5730 5731 5733 5734 5733 5733 5734 5734 5734 5734 5733 5731 5726 5722 5719 5715 5710 5705 5698 5692 5686 5684 5682 5680 5678 5675 5671
5638 5646 5650 5657 5664 5669 5673 5682 5691 5696 5699 5703 5707 5710 5713 5713 5714 5716 5717 5719 5720 5721 5722 5722 5723 5722 5721 5722 5719 5715 5711 5708 5705 5700 5695 5689 5684 5679 5673 5669 5667 5665 5662 5659
5637 5640 5642 5647 5650 5655 5660 5670 5678 5682 5685 5690 5693 5696 5699 5700 5699 5701 5703 5706 5708 5709 5710 5710 5710 5709 5710 5709 5707 5703 5700 5698 5695 5692 5688 5682 5677 5672 5667 5662 5656 5651 5648 5646
5630 5634 5635 5640 5644 5646 5651 5656 5662 5665 5669 5673 5678 5681 5684 5686 5686 5687 5690 5692 5694 5696 5696 5696 5696 5695 5697 5696 5694 5691 5688 5686 5684 5681 5678 5674 5669 5663 5658 5653 5647 5642 5637 5633
5623 5626 5630 5633 5636 5639 5642 5645 5649 5652 5656 5660 5663 5666 5671 5674 5674 5676 5678 5680 5679 5679 5681 5683 5682 5683 5685 5684 5681 5680 5678 5676 5674 5670 5666 5662 5658 5653 5648 5642 5637 5632 5628 5623
5615 5616 5619 5624 5628 5631 5634 5637 5639 5642 5646 5650 5653 5657 5660 5661 5662 5663 5665 5668 5668 5668 5668 5670 5670 5671 5672 5672 5670 5668 5666 5664 5662 5659 5655 5652 5647 5643 5638 5633 5627 5622 5617 5614
5614 5615 5617 5620 5623 5624 5628 5632 5633 5635 5638 5641 5645 5648 5649 5650 5650 5651 5654 5655 5655 5654 5655 5657 5658 5660 5660 5659 5659 5657 5655 5652 5649 5646 5644 5641 5636 5632 5628 5622 5617 5612 5607 5603
5611 5612 5615 5618 5621 5621 5622 5625 5625 5626 5629 5633 5636 5638 5639 5640 5641 5642 5643 5643 5642 5641 5643 5646 5647 5647 5647 5647 5646 5644 5642 5640 5637 5634 5631 5629 5625 5620 5616 5611 5606 5602 5598 5592
5607 5609 5611 5613 5615 5615 5616 5617 5618 5619 5621 5625 5627 5627 5627 5629 5630 5631 5631 5630 5631 5631 5632 5634 5635 5634 5635 5634 5633 5631 5628 5627 5624 5621 5618 5615 5612 5608 5604 5600 5595 5592 5588 5583
5600 5602 5604 5605 5606 5608 5609 5609 5610 5611 5615 5618 5618 5618 5618 5619 5621 5620 5619 5618 5620 5622 5623 5623 5622 5621 5621 5621 5620 5617 5615 5613 5610 5607 5605 5602 5598 5595 5591 5588 5584 5581 5577 5572
5593 5595 5596 5598 5599 5600 5602 5603 5605 5606 5607 5608 5610 5610 5609 5609 5609 5608 5609 5609 5610 5611 5611 5610 5609 5609 5609 5609 5607 5605 5602 5600 5597 5595 5592 5589 5586 5583 5579 5576 5572 5569 5565 5561
5588 5589 5589 5590 5591 5592 5595 5596 5598 5599 5600 5601 5601 5601 5601 5600 5601 5600 5598 5598 5599 5601 5600 5599 5599 5599 5599 5597 5595 5593 5591 5589 5586 5584 5581 5578 5575 5572 5568 5564 5560 5557 5553 5549
5583 5584 5585 5585 5586 5586 5586 5588 5590 5591 5593 5594 5595 5595 5594 5593 5592 5593 5593 5593 5592 5591 5590 5589 5590 5590 5589 5587 5585 5582 5580 5577 5575 5573 5570 5567 5564 5560 5557 5553 5549 5545 5541 5538
5579 5579 5580 5580 5580 5580 5581 5583 5584 5585 5586 5586 5588 5588 5589 5588 5587 5586 5586 5585 5583 5582 5581 5581 5581 5581 5579 5577 5575 5573 5571 5568 5566 5563 5560 5557 5553 5550 5546 5543 5539 5535 5531 5527
5575 5574 5575 5576 5576 5576 5576 5577 5577 5578 5578 5578 5579 5580 5581 5581 5581 5579 5578 5577 5576 5575 5574 5573 5572 5571 5570 5568 5566 5563 5561 5559 5556 5553 5550 5546 5542 5539 5535 5532 5528 5524 5520 5516
5571 5571 5570 5570 5571 5572 5572 5571 5571 5571 5572 5572 5572 5572 5572 5573 5573 5572 5571 5570 5568 5567 5566 5565 5564 5563 5561 5558 5556 5554 5551 5549 5546 5543 5539 5535 5532 5528 5524 5521 5517 5514 5510 5506